North Platte, NE

5:49 AM CDT on June 24, 2017 (GMT -0500)
North Platte Regional-Bird

Weather History for KLBF - March, 2013

Change the Weather History Date:

Thursday, March 28, 2013

  Actual Average Record
Temperature  
Mean Temperature 46 °F 42 °F  
Max Temperature 66 °F 56 °F 86 °F (1986)
Min Temperature 26 °F 27 °F 1 °F (1899)
Degree Days  
Heating Degree Days 19 23  
Month to date heating degree days 828 768  
Since 1 July heating degree days 5788 5796  
Cooling Degree Days 0 0  
Month to date cooling degree days 0 0  
Year to date cooling degree days 0 0  
Moisture  
Dew Point 28 °F    
Average Humidity 56    
Maximum Humidity 85    
Minimum Humidity 26    
Precipitation  
Precipitation 0.00 in 0.04 in 1.84 in (1981)
Month to date precipitation 0.21 0.91  
Year to date precipitation 1.49 1.75  
Snow  
Snow 0.00 in 0.20 in 11.60 in (1980)
Month to date snowfall 2.7 4.0  
Since 1 July snowfall 22.6 24.9  
Snow Depth 0.00 in    
Sea Level Pressure  
Sea Level Pressure 30.13 in    
Wind  
Wind Speed 7 mph (SSE)    
Max Wind Speed 21 mph    
Max Gust Speed 26 mph    
Visibility 10 miles    
Events      
T = Trace of Precipitation, MM = Missing Value Source: NWS Daily Summary

Daily Weather History Graph

Daily Weather History Graph

Search for Another Location

Airport or City:

Trip Planner

Search our weather history database for the weather conditions in past years. The results will help you decide how hot, cold, wet, or windy it might be!

Date:

Astronomy

Mar. 28, 2013 Rise Set
Actual Time 7:32 AM CDT 8:03 PM CDT
Civil Twilight 7:04 AM CDT 8:31 PM CDT
Nautical Twilight 6:31 AM CDT 9:04 PM CDT
Astronomical Twilight 5:58 AM CDT 9:37 PM CDT
Moon 9:59 PM CDT (3/28) 8:00 AM CDT (3/28)
Length of Visible Light 13h 26m
Length of Day
12h 31m
Full, 98% of the Moon is Illuminated
Mar 28
Full
Apr 2
Last Quarter
Apr 10
New
Apr 18
First Quarter
Apr 25
Full

Hourly Weather History & Observations

Time (CDT) Temp. Windchill Dew Point Humidity Pressure Visibility Wind Dir Wind Speed Gust Speed Precip Events Conditions
12:53 AM 28.9 °F 21.1 °F 23.0 °F 78% 30.20 in 10.0 mi ESE 8.1 mph - N/A   Clear
1:53 AM 28.0 °F - 23.0 °F 81% 30.19 in 10.0 mi Calm Calm - N/A   Clear
2:53 AM 28.0 °F 20.8 °F 23.0 °F 81% 30.17 in 10.0 mi ESE 6.9 mph - N/A   Clear
3:53 AM 32.0 °F 28.7 °F 26.1 °F 79% 30.16 in 10.0 mi ESE 3.5 mph - N/A   Overcast
4:53 AM 28.9 °F - 24.1 °F 82% 30.15 in 10.0 mi Calm Calm - N/A   Scattered Clouds
5:53 AM 28.9 °F 23.9 °F 23.0 °F 78% 30.14 in 9.0 mi ESE 4.6 mph - N/A   Clear
6:53 AM 30.9 °F - 24.1 °F 76% 30.14 in 10.0 mi Calm Calm - N/A   Clear
7:53 AM 30.9 °F - 25.0 °F 79% 30.17 in 9.0 mi Calm Calm - N/A   Mostly Cloudy
8:53 AM 37.9 °F 34.4 °F 30.0 °F 73% 30.17 in 10.0 mi East 4.6 mph - N/A   Overcast
9:53 AM 43.0 °F - 30.0 °F 60% 30.17 in 10.0 mi Calm Calm - N/A   Partly Cloudy
10:53 AM 51.1 °F - 30.0 °F 44% 30.16 in 10.0 mi South 8.1 mph - N/A   Partly Cloudy
11:53 AM 55.9 °F - 28.0 °F 34% 30.15 in 10.0 mi South 10.4 mph 20.7 mph N/A   Clear
12:53 PM 60.1 °F - 28.0 °F 30% 30.13 in 10.0 mi South 16.1 mph 21.9 mph N/A   Clear
1:53 PM 62.1 °F - 28.0 °F 28% 30.12 in 10.0 mi South 15.0 mph 26.5 mph N/A   Clear
2:53 PM 63.0 °F - 30.0 °F 29% 30.10 in 10.0 mi South 9.2 mph 21.9 mph N/A   Clear
3:53 PM 64.0 °F - 30.0 °F 28% 30.07 in 10.0 mi WSW 9.2 mph 19.6 mph N/A   Partly Cloudy
4:53 PM 66.0 °F - 30.9 °F 27% 30.05 in 10.0 mi SSW 11.5 mph 21.9 mph N/A   Clear
5:53 PM 64.9 °F - 30.9 °F 28% 30.04 in 10.0 mi SW 10.4 mph - N/A   Clear
6:53 PM 64.0 °F - 32.0 °F 30% 30.04 in 10.0 mi SW 10.4 mph - N/A   Clear
7:53 PM 59.0 °F - 30.9 °F 35% 30.07 in 10.0 mi South 4.6 mph - N/A   Clear
8:53 PM 52.0 °F - 32.0 °F 47% 30.09 in 10.0 mi South 3.5 mph - N/A   Clear
9:53 PM 46.0 °F 42.5 °F 30.9 °F 56% 30.11 in 10.0 mi ESE 6.9 mph - N/A   Clear
10:53 PM 41.0 °F 35.8 °F 28.9 °F 62% 30.13 in 10.0 mi ESE 8.1 mph - N/A   Clear
11:53 PM 41.0 °F 36.4 °F 28.9 °F 62% 30.12 in 10.0 mi SE 6.9 mph - N/A   Clear